EHI
0 0 0 0 0 0 0 0 0 0 0 0 0 0 0 0 2 4 9 23 45 55 44 37 41 47 44 33 21 14 11 12 12 12 11 8 6 5 3 1 1 1 1 0 0 0 0 0 1
0 0 0 0 0 0 0 0 0 0 0 0 0 0 0 0 3 9 17 34 57 64 52 43 47 51 45 32 21 14 8 6 5 5 5 4 3 2 1 0 0 0 0 0 0 0 0 1 2
0 0 0 0 0 0 0 0 0 0 0 0 0 0 0 0 4 15 33 55 72 75 64 56 58 59 47 33 23 16 7 2 0 0 0 0 0 0 0 0 0 0 0 0 0 0 0 1 2
0 0 0 0 0 0 0 0 0 0 0 0 1 1 2 4 13 31 56 73 80 80 74 69 69 66 53 38 27 19 9 2 0 0 0 0 0 0 0 0 0 0 0 0 0 0 0 0 1
0 0 0 0 0 0 0 0 0 0 0 1 2 3 5 13 31 55 72 80 83 84 79 74 73 69 58 44 32 23 12 4 1 0 0 0 0 0 0 0 0 0 0 0 0 0 0 0 0
0 0 0 0 0 0 0 0 0 0 0 2 5 7 10 23 46 65 73 78 82 84 81 74 69 65 57 46 37 26 14 8 4 2 1 0 0 0 0 0 0 0 0 0 0 0 0 0 0
0 0 0 0 0 0 0 0 0 0 0 2 7 11 17 32 51 62 68 74 78 81 81 74 63 55 49 43 36 28 18 12 8 5 3 1 0 0 0 0 0 0 0 0 0 0 0 0 0
0 0 0 0 0 0 0 0 0 0 1 3 8 14 23 37 53 63 68 71 72 73 76 73 62 52 43 36 32 28 22 16 11 7 4 2 0 0 0 0 0 0 0 0 0 0 0 0 0
0 0 0 0 0 0 0 0 0 0 1 5 10 19 30 43 58 69 73 71 66 64 66 67 62 55 45 36 31 28 22 17 12 8 4 2 0 0 0 0 0 0 0 0 0 0 0 0 0
0 0 0 0 0 0 0 0 0 0 1 6 15 27 38 47 57 70 74 68 61 59 57 56 55 53 49 44 39 31 21 15 10 7 4 2 0 0 0 0 0 0 0 0 0 0 0 0 0
0 0 0 0 0 0 0 1 2 2 2 7 18 31 40 44 51 63 67 61 54 51 49 45 44 44 45 47 43 32 20 12 7 5 3 1 0 0 0 0 0 0 1 0 0 0 0 0 0
0 0 0 0 0 0 0 2 3 3 3 7 18 30 37 39 44 55 61 55 45 40 39 38 37 36 36 39 36 28 19 11 5 3 2 1 0 0 0 0 0 0 0 0 0 0 0 0 0
0 0 0 0 0 0 0 1 3 3 4 9 18 27 33 36 41 51 57 53 43 37 36 35 35 32 31 30 27 22 15 9 4 3 2 1 0 0 0 0 0 0 0 0 0 0 0 0 0
0 0 0 0 0 0 0 1 2 4 7 12 17 24 31 35 41 50 55 53 46 40 36 34 31 29 28 25 20 16 12 7 4 3 2 1 0 0 0 0 0 0 0 0 0 0 0 0 0
0 0 0 0 0 0 0 0 2 5 10 15 18 23 29 33 35 42 50 50 44 39 35 31 28 26 25 22 17 12 9 7 4 2 1 1 1 0 0 1 1 0 0 0 0 0 0 0 0
0 0 0 0 0 0 0 0 2 6 13 19 19 22 27 29 29 33 40 43 39 34 32 30 29 27 24 22 18 14 12 10 7 4 2 2 1 1 1 2 1 0 0 0 0 0 0 0 0
0 0 0 0 0 1 1 2 6 12 19 23 24 25 28 30 30 31 34 38 36 33 31 31 33 33 31 31 28 23 18 14 9 6 4 3 2 1 2 2 1 1 1 0 0 0 0 0 0
0 0 0 0 1 3 5 9 16 24 29 30 31 32 33 33 33 32 33 35 36 33 31 31 34 38 41 45 43 35 25 15 9 6 4 2 1 2 2 2 1 2 2 1 1 0 0 0 0
0 0 0 1 4 9 14 21 30 35 38 38 36 36 35 34 32 31 30 31 33 33 31 30 33 38 46 51 48 40 28 17 9 5 4 3 2 2 3 3 3 4 4 3 2 1 1 0 0
0 0 0 3 9 16 22 29 34 35 36 36 34 31 30 29 26 25 26 25 27 29 29 29 30 35 41 43 40 35 27 18 10 6 4 3 3 4 5 5 4 4 4 3 3 3 2 1 0
0 0 2 6 10 14 20 24 25 24 24 24 22 20 20 20 18 18 18 17 19 22 25 26 26 28 31 32 30 27 23 16 9 6 4 3 3 4 4 4 4 3 3 3 3 2 2 1 0
0 0 2 5 6 6 8 10 12 13 15 15 12 10 11 12 12 11 10 10 11 15 19 20 20 21 22 23 23 21 17 11 6 5 4 3 3 3 3 3 3 3 3 2 1 1 1 0 0
0 0 1 2 2 1 1 1 3 8 11 12 10 8 8 9 9 8 6 5 6 10 13 14 15 15 15 17 17 15 11 7 4 5 5 4 3 2 2 2 2 2 1 1 0 0 0 0 0
0 0 0 0 0 0 0 0 1 3 7 10 11 9 8 9 8 7 6 5 6 9 10 10 10 10 9 11 12 9 6 4 4 4 4 3 1 1 1 1 1 1 0 0 0 0 0 0 0
0 0 0 0 0 0 0 0 0 1 4 8 9 8 8 7 7 6 6 6 6 7 7 7 7 6 5 5 6 5 4 3 3 3 2 1 0 0 0 0 0 0 0 0 0 0 0 0 0
0 0 0 0 0 0 0 0 0 1 3 5 5 5 4 4 4 5 5 4 4 4 4 4 4 5 3 3 3 3 3 3 2 1 0 0 0 0 0 0 0 0 0 0 0 0 0 0 0
0 0 0 0 0 0 0 0 0 1 3 3 2 1 1 1 2 2 2 2 3 3 3 3 3 3 3 2 2 2 2 1 1 0 0 0 0 0 0 0 0 0 0 0 0 0 0 0 0
0 0 0 0 0 0 0 0 0 1 2 2 1 0 0 0 0 0 0 1 2 2 2 2 2 2 2 1 1 1 1 0 0 0 0 0 0 0 0 0 0 0 0 0 0 0 0 0 0
0 0 0 0 0 0 0 0 0 1 1 1 0 0 0 0 0 0 0 0 1 1 1 1 1 0 0 0 0 0 0 0 0 0 0 0 0 0 0 0 0 0 0 0 0 0 0 0 0
0 0 0 0 0 0 0 0 0 0 0 0 0 0 0 0 0 0 0 0 0 0 0 0 0 0 0 0 0 0 0 0 0 0 0 0 0 0 0 0 0 0 0 0 0 0 0 0 0
Wind_Speed
10 7 1 3 5 3 4 5 2 2 3 3 2 2 3 6 6 5 4 15 18 18 15 18 19 19 19 19 19 18 18 18 17 17 16 16 16 15 14 14 13 13 13 13 13 12 12 12 12
5 4 3 4 4 1 6 4 3 4 5 3 2 2 3 5 3 6 7 15 20 18 14 16 20 20 20 19 19 18 18 18 17 17 16 16 15 14 14 14 13 12 12 12 12 11 11 10 10
6 1 3 3 4 6 6 4 4 3 5 5 3 2 1 5 2 5 9 18 18 16 13 16 22 20 20 20 19 19 19 18 17 17 16 15 15 14 13 13 13 12 12 11 11 10 9 9 9
3 4 4 2 8 8 7 6 4 3 2 4 4 2 2 5 2 8 18 19 18 15 13 17 21 21 20 20 19 19 19 18 17 17 16 15 14 13 13 13 12 12 11 11 10 9 8 7 7
4 3 1 3 8 7 7 8 5 4 3 4 5 2 5 7 5 16 18 18 17 13 12 15 19 20 20 20 20 19 18 17 17 16 15 14 13 12 12 12 12 11 10 10 9 8 7 5 5
4 4 2 5 8 7 7 6 4 4 3 5 7 4 4 2 9 13 15 15 15 15 12 13 19 21 20 20 19 18 17 17 16 16 15 14 13 12 12 11 11 10 10 9 8 7 6 4 2
4 3 4 5 6 8 9 4 4 4 3 4 8 6 1 3 7 11 13 14 13 13 13 11 12 15 18 18 18 17 17 16 16 15 15 14 13 13 13 11 11 10 9 9 8 6 5 3 2
5 3 3 3 5 8 5 2 2 4 4 5 8 9 6 7 9 12 13 13 13 11 11 11 10 10 10 12 17 18 17 16 16 16 16 15 14 13 13 11 10 10 10 9 8 6 5 4 4
4 3 4 5 5 7 5 4 4 2 3 3 5 6 11 12 12 13 12 11 11 12 10 10 10 9 9 9 13 15 16 16 15 14 16 13 6 6 8 10 11 11 10 9 8 7 6 5 5
5 4 9 8 7 7 7 4 4 1 1 1 1 3 11 13 14 15 15 14 14 14 12 9 10 10 9 9 8 6 8 8 7 6 8 5 5 5 7 9 12 12 10 9 9 8 7 5 3
5 7 9 10 11 8 6 5 2 2 2 5 8 9 11 11 12 14 14 13 14 13 12 10 9 9 9 6 6 4 4 5 5 7 7 5 4 3 4 3 5 6 7 4 4 4 3 3 2
4 8 9 11 12 7 6 4 2 2 5 8 11 12 10 9 11 13 13 12 11 11 11 11 10 9 8 7 6 6 5 5 5 6 7 5 4 4 3 3 3 3 2 3 2 2 3 3 3
5 8 9 11 11 8 5 4 3 3 2 7 10 10 9 8 8 8 10 11 12 11 10 11 11 11 9 8 7 7 6 6 6 6 6 6 5 5 4 3 3 4 3 3 3 3 3 3 3
6 6 8 7 6 4 4 5 2 4 3 7 9 10 10 9 9 9 10 11 12 13 12 11 12 12 11 9 8 7 6 6 6 6 7 7 5 5 4 4 4 3 3 3 3 3 3 2 1
4 6 9 7 4 4 1 5 5 6 4 6 8 8 8 7 7 8 10 10 12 12 11 11 11 12 12 11 10 8 7 6 5 5 6 6 6 5 4 4 3 3 3 3 2 2 2 1 1
6 5 6 10 5 5 1 6 9 5 3 4 5 8 8 6 5 5 7 7 7 8 8 9 10 9 9 9 8 6 6 6 5 4 4 5 5 5 4 3 3 2 2 2 2 1 1 1 1
4 3 7 11 7 4 2 5 6 2 6 5 7 8 8 7 8 6 7 7 6 5 5 5 6 7 7 7 5 5 5 5 3 3 3 3 4 4 4 3 2 2 2 1 1 2 1 1 1
6 5 7 9 8 1 2 2 4 7 9 8 9 10 10 10 8 7 8 8 7 6 5 3 4 4 5 4 4 4 4 4 3 3 3 3 3 4 4 3 3 3 2 2 2 2 2 1 1
8 7 10 12 8 1 4 5 6 7 11 12 10 10 11 10 9 9 9 9 8 7 5 2 3 4 4 5 5 5 4 4 4 4 6 5 5 5 4 3 4 3 3 2 2 2 3 2 2
8 8 9 9 5 2 7 8 8 10 11 11 11 11 11 11 11 11 10 8 7 7 5 1 0 4 3 3 4 4 5 5 5 5 7 7 7 6 5 5 4 3 3 4 4 2 2 2 3
8 6 6 5 3 4 6 5 6 7 11 12 12 11 11 11 10 10 10 8 6 6 5 3 2 4 4 6 7 7 5 5 5 6 6 8 8 8 7 6 5 5 4 4 4 3 2 2 3
6 6 3 3 2 2 2 2 1 5 8 10 10 11 11 10 10 10 10 9 7 7 6 6 4 6 6 5 7 9 7 6 5 5 6 7 9 9 8 7 7 6 5 5 5 5 3 3 2
6 5 2 2 1 1 2 3 2 4 5 7 9 10 10 10 10 10 10 8 8 8 7 6 7 8 7 7 8 9 9 8 7 6 8 8 8 9 8 8 8 7 6 7 7 7 7 5 4
2 4 6 5 4 1 2 3 3 1 5 8 9 10 10 9 10 10 9 9 9 9 9 9 10 10 9 9 10 11 12 10 10 8 8 7 6 7 9 9 8 8 7 7 7 7 8 7 7
4 6 5 5 4 3 2 3 1 4 8 11 11 10 10 10 10 10 10 11 10 11 10 10 11 11 10 11 11 11 12 11 10 9 8 8 7 6 7 8 7 7 7 7 7 8 8 7 8
1 6 6 3 3 3 3 3 4 8 12 12 11 11 10 10 10 10 10 10 10 10 10 10 10 10 10 11 11 11 11 9 8 9 8 8 7 7 7 7 8 8 8 8 7 7 7 7 7
0 1 6 6 2 1 1 3 4 7 10 10 10 10 10 9 9 10 10 10 10 9 10 9 10 12 11 11 12 12 11 11 11 10 9 7 7 7 8 7 8 8 8 8 7 7 6 6 6
3 2 5 5 3 0 0 2 4 7 8 8 8 9 9 8 9 9 9 10 9 9 10 10 11 12 12 11 10 11 11 11 10 9 9 9 8 7 7 7 8 8 8 7 7 6 6 7 6
4 4 4 4 3 4 1 2 1 7 10 10 9 8 9 9 8 8 8 8 9 9 9 10 11 11 11 11 11 11 11 10 10 9 9 8 7 7 7 7 8 8 8 7 6 6 6 6 6
4 2 4 4 1 2 2 1 3 6 9 11 11 10 9 10 9 8 9 9 9 9 9 9 10 10 10 10 10 10 10 9 9 9 8 7 7 6 6 7 8 8 7 7 7 6 6 5 5
Wind_Direction
317 310 320 65 53 46 251 248 217 183 181 188 156 156 233 226 198 193 167 151 144 149 156 156 152 146 141 136 132 128 125 121 117 114 112 110 108 108 108 109 108 109 109 107 106 105 104 104 103
311 313 36 67 98 252 268 244 199 208 185 136 64 71 313 269 215 126 131 147 145 148 154 156 153 148 144 140 136 134 131 128 125 123 120 118 116 114 114 114 114 114 113 111 110 108 107 105 103
307 287 85 94 169 196 234 248 224 209 174 138 107 76 252 263 178 139 143 142 141 147 152 157 154 150 146 144 141 139 137 135 132 130 128 125 123 122 121 120 120 119 117 116 113 112 109 105 100
9 29 53 124 234 228 225 251 242 227 184 120 116 119 241 269 242 140 138 142 142 147 152 156 155 152 149 148 145 144 143 141 139 137 134 132 130 129 127 126 126 125 124 121 119 117 114 107 100
61 76 63 258 251 254 257 254 232 222 182 123 111 74 312 317 102 132 140 144 144 145 149 155 154 153 152 151 150 148 148 146 144 142 140 138 137 135 133 133 133 132 131 130 128 127 122 115 105
50 73 137 246 263 271 269 253 220 223 180 136 121 104 293 240 130 142 142 142 143 144 146 152 155 155 155 155 153 152 151 150 148 147 145 144 143 141 140 140 141 141 140 140 140 141 140 135 126
124 117 206 237 268 279 276 266 212 203 204 170 137 123 261 212 154 145 139 136 136 140 144 148 155 157 158 157 156 155 154 153 151 150 150 150 149 150 149 149 151 151 151 153 156 159 163 172 204
148 110 267 263 268 275 281 298 241 197 201 163 139 145 183 198 160 144 137 135 135 139 146 149 153 154 155 158 160 158 157 156 155 155 156 157 157 158 159 159 162 163 166 170 173 179 189 206 237
116 90 252 251 254 269 297 318 295 254 150 156 161 171 176 170 154 142 134 134 141 144 149 152 154 154 154 156 163 161 161 161 159 161 162 159 158 159 164 171 174 176 180 184 189 196 207 225 249
120 172 235 231 236 261 283 280 277 306 136 139 107 119 146 157 163 155 153 152 155 154 155 155 156 158 158 164 155 159 161 161 160 161 161 156 159 173 177 186 186 187 191 197 204 211 221 232 249
182 209 242 256 256 254 273 281 276 128 226 188 165 158 157 164 169 160 158 159 159 157 156 159 159 160 164 156 154 159 157 159 162 164 163 161 165 182 185 184 194 195 198 204 217 223 226 230 239
231 253 247 256 261 260 255 262 288 191 215 181 164 152 158 169 170 163 158 153 149 154 159 159 164 164 166 155 162 164 164 170 173 176 174 169 172 182 182 187 190 188 191 195 209 210 223 237 243
256 259 265 258 261 251 250 258 246 260 208 143 141 141 153 167 169 157 150 147 148 155 164 168 168 170 168 161 170 172 173 176 179 179 182 178 178 182 182 188 191 195 195 199 207 214 221 232 244
255 275 284 279 273 256 245 269 276 257 161 137 143 152 158 157 152 142 145 154 158 162 165 172 179 173 168 170 177 174 177 178 179 181 185 182 180 179 178 183 187 195 197 198 199 201 202 213 211
303 321 317 298 283 269 12 320 271 248 167 150 147 146 143 135 136 144 155 159 162 166 166 172 181 173 170 174 179 174 178 174 177 182 184 182 179 175 172 171 180 191 185 181 177 182 179 179 147
351 347 309 292 290 282 103 267 278 274 133 146 130 119 113 107 120 132 133 134 149 158 168 176 178 175 175 177 176 169 170 166 169 172 173 176 171 164 159 154 165 163 148 147 149 145 125 113 103
348 297 280 291 282 266 192 239 306 3 112 110 103 106 107 93 80 97 115 112 116 126 154 164 156 167 177 179 164 147 143 151 155 154 153 155 152 147 137 136 134 121 106 99 128 91 103 95 38
259 268 278 277 285 246 183 179 13 43 84 91 90 90 88 82 74 87 102 99 94 94 102 120 134 156 160 149 127 118 111 111 101 97 89 94 103 111 110 99 87 90 87 73 74 87 73 77 42
244 263 275 277 279 122 142 96 51 61 75 82 84 87 85 75 67 65 76 78 77 70 70 82 157 165 151 141 140 131 131 110 89 73 68 66 69 76 83 86 74 70 76 70 75 93 74 44 19
250 264 274 289 313 73 114 92 68 61 69 80 84 82 82 80 70 61 59 63 68 78 82 87 18 146 136 136 128 123 117 93 82 71 63 56 59 61 72 68 69 65 66 51 41 58 90 56 34
264 239 251 272 345 54 98 61 75 69 77 72 70 71 69 73 72 65 56 46 53 62 66 74 51 92 105 106 104 103 96 87 75 64 61 49 57 61 64 69 68 60 67 66 49 46 87 96 46
280 263 228 265 2 291 100 129 133 106 88 80 74 69 66 61 62 60 55 42 37 47 56 58 60 77 79 91 113 120 113 105 88 84 78 64 58 61 62 66 68 62 58 58 51 46 51 82 74
257 278 271 257 221 350 22 112 240 130 107 99 86 79 73 65 60 56 49 43 40 41 48 56 59 65 71 81 97 107 104 102 103 95 84 73 61 58 60 61 63 63 62 61 58 53 53 55 63
289 6 5 30 64 356 267 142 242 221 142 118 94 81 74 67 61 55 49 44 44 44 47 53 60 57 59 73 86 99 106 110 110 102 92 79 68 59 56 63 64 63 62 60 60 60 61 60 63
45 69 28 4 10 270 315 96 26 46 97 107 101 87 76 67 60 52 47 46 43 43 47 54 63 61 61 71 79 89 98 102 102 99 95 91 78 67 57 63 65 64 61 60 60 61 59 58 63
287 128 149 187 228 287 7 74 67 81 91 92 93 90 79 69 62 56 49 49 47 47 51 56 65 68 68 72 76 82 87 90 89 88 90 89 87 79 68 65 66 64 62 62 59 61 60 59 60
341 153 166 141 153 77 28 109 111 101 99 99 96 90 83 75 68 64 57 53 51 51 55 59 67 70 70 76 81 79 81 86 91 88 85 85 84 84 74 68 67 63 62 61 63 62 57 58 57
142 144 80 95 123 184 326 168 173 159 135 120 110 104 96 85 75 69 64 61 59 58 59 61 68 73 73 74 79 84 82 84 86 87 85 82 79 77 74 68 66 63 59 56 59 58 53 56 48
25 49 85 99 129 138 202 280 252 165 148 137 123 113 108 99 90 82 75 70 67 64 64 65 68 73 75 76 80 82 82 82 83 84 84 84 81 75 71 69 67 62 56 52 56 54 53 55 48
109 139 128 127 142 133 151 269 13 129 129 128 124 117 108 101 96 90 85 80 74 72 70 71 71 74 77 80 81 82 83 84 84 83 80 79 79 75 74 72 67 62 56 50 51 52 49 51 50